Weather History for Burlington, IA

Change the Weather History Date:

Monday, December 9, 2013

  Actual Average Record
Temperature  
Mean Temperature 12 °F 31 °F  
Max Temperature 21 °F 39 °F 66 °F (1940)
Min Temperature 2 °F 23 °F -12 °F (1958)
Degree Days  
Heating Degree Days 53 34  
Month to date heating degree days 344 293  
Since 1 July heating degree days 1581 1366  
Cooling Degree Days 0 0  
Month to date cooling degree days 0 0  
Year to date cooling degree days 1115 1207  
Moisture  
Dew Point 5 °F    
Average Humidity 71    
Maximum Humidity 84    
Minimum Humidity 58    
Precipitation  
Precipitation T in 0.07 in 2.05 in (2003)
Month to date precipitation T 0.69  
Year to date precipitation 32.39 37.08  
Sea Level Pressure  
Sea Level Pressure 30.23 in    
Wind  
Wind Speed 8 mph (West)    
Max Wind Speed 17 mph    
Max Gust Speed 24 mph    
Visibility 9 miles    
Events Snow    
T = Trace of Precipitation, MM = Missing Value Source: NWS Daily Summary

Daily Weather History Graph

Daily Weather History Graph

Search for Another Location

Airport:

Trip Planner

Search our weather history database for the weather conditions in past years. The results will help you decide how hot, cold, wet, or windy it might be!

Date:

Astronomy

Dec. 09, 2013 Rise Set
Actual Time 7:17 AM CST 4:36 PM CST
Civil Twilight 6:46 AM CST 5:07 PM CST
Nautical Twilight 6:11 AM CST 5:41 PM CST
Astronomical Twilight 5:38 AM CST 6:15 PM CST
Moon 12:08 PM CST (12/9) No Moon Set
Length of Visible Light 10h 21m
Length of Day
9h 19m
Waxing Crescent, 51% of the Moon is Illuminated
Dec 9
Waxing Crescent
Dec 17
Full
Dec 25
Last Quarter
Jan 1
New
Jan 7
First Quarter

Hourly Weather History & Observations

Time (CST) Temp. Windchill Dew Point Humidity Pressure Visibility Wind Dir Wind Speed Gust Speed Precip Events Conditions
12:23 AM 21.2 °F 11.7 °F 17.6 °F 86% 30.03 in 5.0 mi West 8.1 mph - 0.00 in   Overcast
12:53 AM 21.0 °F 11.4 °F 17.1 °F 85% 30.06 in 5.0 mi West 8.1 mph - 0.00 in Snow Light Snow
1:53 AM 19.9 °F 7.9 °F 16.0 °F 85% 30.09 in 7.0 mi West 11.5 mph - 0.00 in   Overcast
2:53 AM 18.0 °F 6.1 °F 12.9 °F 81% 30.12 in 9.0 mi WNW 10.4 mph 18.4 mph N/A   Mostly Cloudy
3:14 AM 17.6 °F 5.7 °F 12.2 °F 79% 30.10 in 9.0 mi West 10.4 mph - N/A   Scattered Clouds
3:53 AM 17.1 °F 7.6 °F 12.0 °F 81% 30.14 in 9.0 mi WNW 6.9 mph - N/A   Partly Cloudy
4:53 AM 15.1 °F 4.2 °F 10.9 °F 84% 30.14 in 9.0 mi WNW 8.1 mph - N/A   Clear
5:53 AM 14.0 °F 2.9 °F 9.0 °F 80% 30.18 in 9.0 mi West 8.1 mph - N/A   Clear
6:53 AM 12.0 °F 2.7 °F 8.1 °F 84% 30.21 in 9.0 mi West 5.8 mph - N/A   Clear
7:53 AM 12.0 °F 1.5 °F 7.0 °F 80% 30.22 in 8.0 mi WNW 6.9 mph - N/A   Clear
8:53 AM 12.9 °F -0.2 °F 7.0 °F 77% 30.23 in 9.0 mi WNW 10.4 mph - N/A   Clear
9:53 AM 14.0 °F 1.2 °F 7.0 °F 74% 30.27 in 10.0 mi WNW 10.4 mph 18.4 mph N/A   Clear
10:53 AM 15.1 °F 4.2 °F 6.1 °F 68% 30.30 in 10.0 mi WNW 8.1 mph 18.4 mph N/A   Clear
11:53 AM 15.1 °F 1.1 °F 8.1 °F 74% 30.30 in 10.0 mi West 12.7 mph - N/A   Mostly Cloudy
12:17 PM 15.8 °F 0.9 °F 5.0 °F 62% 30.26 in 10.0 mi West 15.0 mph - N/A   Scattered Clouds
12:53 PM 15.1 °F 0.5 °F 6.1 °F 68% 30.30 in 10.0 mi WSW 13.8 mph 20.7 mph N/A   Clear
1:53 PM 15.1 °F 1.8 °F 3.0 °F 59% 30.31 in 10.0 mi West 11.5 mph - N/A   Clear
2:53 PM 15.1 °F 4.2 °F 3.0 °F 59% 30.30 in 10.0 mi WNW 8.1 mph - N/A   Clear
3:53 PM 14.0 °F 2.0 °F 1.0 °F 56% 30.30 in 10.0 mi WNW 9.2 mph 17.3 mph N/A   Clear
4:53 PM 10.0 °F -0.9 °F -0.9 °F 61% 30.31 in 10.0 mi NNW 6.9 mph - N/A   Clear
5:53 PM 6.1 °F - -2.0 °F 69% 30.32 in 10.0 mi Calm Calm - N/A   Clear
6:53 PM 5.0 °F - -2.9 °F 70% 30.31 in 10.0 mi Calm Calm - N/A   Clear
7:53 PM 3.9 °F -3.4 °F -2.9 °F 73% 30.31 in 10.0 mi WSW 3.5 mph - N/A   Clear
8:53 PM 3.9 °F -6.9 °F -2.9 °F 73% 30.30 in 10.0 mi West 5.8 mph - N/A   Clear
9:53 PM 6.1 °F -4.3 °F -2.9 °F 67% 30.29 in 10.0 mi West 5.8 mph - N/A   Clear
10:53 PM 3.9 °F -5.3 °F -2.9 °F 73% 30.30 in 10.0 mi West 4.6 mph - N/A   Clear
11:53 PM 1.9 °F -9.2 °F -4.0 °F 76% 30.28 in 10.0 mi SW 5.8 mph - N/A   Clear